QPF
0.00 0.00 0.00 0.00 0.00 0.01 0.01 0.01 0.01 0.02 0.02 0.02 0.02 0.02 0.02 0.01 0.01 0.01 0.01 0.01 0.02 0.03 0.03 0.04 0.05 0.06 0.08 0.07 0.09 0.13 0.17 0.16 0.14 0.12 0.12 0.13 0.13 0.11
0.00 0.00 0.00 0.00 0.00 0.00 0.01 0.01 0.01 0.01 0.01 0.02 0.02 0.03 0.02 0.01 0.01 0.01 0.02 0.02 0.01 0.02 0.03 0.03 0.03 0.03 0.04 0.04 0.04 0.06 0.08 0.09 0.09 0.09 0.09 0.09 0.09 0.09
0.00 0.00 0.00 0.00 0.00 0.01 0.01 0.01 0.01 0.01 0.01 0.01 0.01 0.02 0.02 0.01 0.01 0.02 0.03 0.02 0.02 0.01 0.02 0.02 0.02 0.03 0.03 0.03 0.03 0.02 0.04 0.06 0.06 0.05 0.05 0.06 0.07 0.06
0.00 0.00 0.00 0.00 0.00 0.01 0.01 0.01 0.01 0.01 0.01 0.01 0.00 0.01 0.02 0.01 0.02 0.04 0.04 0.02 0.01 0.02 0.02 0.02 0.02 0.02 0.03 0.03 0.03 0.03 0.03 0.04 0.05 0.04 0.03 0.04 0.06 0.07
0.00 0.00 0.00 0.00 0.01 0.01 0.01 0.01 0.01 0.01 0.01 0.01 0.00 0.00 0.01 0.01 0.03 0.04 0.05 0.04 0.02 0.02 0.04 0.05 0.05 0.03 0.03 0.03 0.04 0.05 0.05 0.04 0.04 0.04 0.03 0.03 0.04 0.06
0.00 0.00 0.00 0.00 0.01 0.01 0.01 0.01 0.02 0.02 0.02 0.01 0.01 0.01 0.01 0.01 0.02 0.02 0.03 0.03 0.03 0.03 0.04 0.04 0.05 0.05 0.03 0.03 0.02 0.03 0.04 0.06 0.05 0.04 0.04 0.03 0.03 0.03
0.00 0.00 0.00 0.00 0.00 0.01 0.02 0.02 0.02 0.02 0.02 0.01 0.01 0.00 0.01 0.01 0.01 0.01 0.02 0.02 0.03 0.04 0.04 0.04 0.04 0.04 0.03 0.02 0.02 0.03 0.04 0.04 0.04 0.04 0.05 0.05 0.04 0.03
0.00 0.00 0.00 0.00 0.00 0.01 0.02 0.03 0.03 0.03 0.02 0.02 0.01 0.01 0.00 0.01 0.01 0.01 0.02 0.03 0.03 0.02 0.02 0.03 0.02 0.02 0.02 0.01 0.02 0.03 0.05 0.06 0.06 0.06 0.05 0.04 0.05 0.04
0.00 0.00 0.00 0.00 0.01 0.01 0.02 0.02 0.03 0.04 0.04 0.03 0.02 0.01 0.01 0.01 0.01 0.02 0.02 0.03 0.03 0.03 0.03 0.03 0.03 0.02 0.01 0.01 0.01 0.02 0.03 0.05 0.06 0.07 0.06 0.05 0.04 0.04
0.01 0.00 0.00 0.01 0.01 0.01 0.01 0.02 0.03 0.04 0.04 0.04 0.03 0.01 0.01 0.01 0.02 0.02 0.02 0.03 0.04 0.06 0.06 0.05 0.04 0.03 0.02 0.01 0.01 0.02 0.02 0.03 0.03 0.03 0.04 0.04 0.04 0.03
0.00 0.00 0.00 0.01 0.01 0.01 0.01 0.01 0.03 0.03 0.05 0.06 0.05 0.03 0.02 0.02 0.03 0.03 0.03 0.04 0.05 0.06 0.06 0.06 0.05 0.04 0.04 0.02 0.01 0.01 0.01 0.02 0.03 0.02 0.02 0.03 0.03 0.03
0.00 0.01 0.01 0.01 0.01 0.01 0.01 0.01 0.02 0.02 0.04 0.05 0.06 0.05 0.03 0.02 0.03 0.03 0.03 0.03 0.04 0.04 0.04 0.04 0.04 0.05 0.05 0.05 0.03 0.01 0.01 0.01 0.02 0.02 0.02 0.03 0.03 0.02
0.01 0.01 0.01 0.01 0.01 0.01 0.01 0.01 0.01 0.03 0.04 0.05 0.05 0.05 0.05 0.04 0.03 0.03 0.04 0.04 0.04 0.03 0.02 0.03 0.04 0.05 0.04 0.04 0.05 0.03 0.01 0.01 0.01 0.01 0.02 0.02 0.03 0.03
0.01 0.01 0.01 0.01 0.01 0.01 0.01 0.01 0.03 0.03 0.04 0.05 0.05 0.05 0.05 0.04 0.03 0.03 0.03 0.04 0.04 0.03 0.03 0.03 0.03 0.04 0.05 0.05 0.05 0.05 0.04 0.02 0.01 0.01 0.01 0.02 0.02 0.03
0.01 0.01 0.01 0.01 0.01 0.01 0.01 0.02 0.03 0.04 0.04 0.04 0.05 0.04 0.04 0.04 0.04 0.04 0.04 0.05 0.05 0.06 0.06 0.05 0.04 0.04 0.05 0.05 0.05 0.06 0.06 0.04 0.02 0.02 0.02 0.02 0.02 0.02
0.00 0.01 0.01 0.01 0.00 0.00 0.01 0.02 0.04 0.06 0.06 0.05 0.06 0.06 0.05 0.05 0.05 0.05 0.05 0.06 0.06 0.06 0.07 0.07 0.07 0.06 0.05 0.04 0.05 0.05 0.06 0.07 0.05 0.03 0.02 0.02 0.02 0.02
0.00 0.01 0.01 0.01 0.01 0.01 0.01 0.02 0.03 0.04 0.06 0.06 0.08 0.08 0.06 0.05 0.05 0.05 0.05 0.07 0.07 0.07 0.07 0.08 0.09 0.09 0.08 0.07 0.05 0.05 0.05 0.05 0.06 0.05 0.04 0.03 0.03 0.02
0.00 0.01 0.01 0.02 0.02 0.01 0.02 0.02 0.03 0.03 0.04 0.05 0.06 0.07 0.06 0.06 0.05 0.06 0.06 0.07 0.08 0.08 0.08 0.07 0.08 0.10 0.11 0.10 0.08 0.05 0.04 0.04 0.05 0.06 0.06 0.05 0.04 0.03
0.00 0.01 0.01 0.02 0.01 0.01 0.01 0.02 0.03 0.03 0.05 0.05 0.06 0.06 0.06 0.06 0.06 0.06 0.08 0.09 0.09 0.10 0.09 0.08 0.08 0.09 0.10 0.09 0.08 0.05 0.04 0.04 0.04 0.05 0.05 0.03 0.02 0.01
0.00 0.01 0.01 0.01 0.01 0.01 0.01 0.02 0.03 0.04 0.05 0.06 0.06 0.07 0.07 0.06 0.06 0.06 0.08 0.10 0.12 0.13 0.12 0.11 0.09 0.08 0.09 0.07 0.06 0.05 0.04 0.04 0.04 0.04 0.04 0.04 0.03 0.03
0.00 0.01 0.01 0.01 0.01 0.02 0.02 0.02 0.03 0.04 0.06 0.07 0.07 0.07 0.06 0.06 0.06 0.07 0.08 0.10 0.13 0.15 0.15 0.13 0.10 0.09 0.09 0.09 0.08 0.06 0.05 0.04 0.04 0.03 0.03 0.03 0.03 0.04
0.00 0.01 0.01 0.01 0.01 0.02 0.02 0.02 0.03 0.04 0.06 0.07 0.07 0.07 0.07 0.07 0.06 0.07 0.08 0.09 0.09 0.12 0.14 0.13 0.11 0.10 0.09 0.09 0.08 0.07 0.06 0.05 0.04 0.04 0.03 0.03 0.02 0.02
0.01 0.01 0.01 0.01 0.01 0.02 0.02 0.03 0.04 0.04 0.05 0.07 0.07 0.07 0.08 0.08 0.07 0.07 0.08 0.07 0.08 0.09 0.12 0.13 0.13 0.11 0.10 0.09 0.09 0.08 0.07 0.05 0.04 0.04 0.04 0.03 0.02 0.02
MSLP
1019.38 1019.36 1019.33 1019.28 1019.17 1018.98 1018.69 1018.32 1017.88 1017.38 1016.85 1016.32 1015.81 1015.32 1014.86 1014.44 1014.04 1013.68 1013.35 1013.05 1012.81 1012.63 1012.53 1012.51 1012.56 1012.69 1012.88 1013.11 1013.38 1013.67 1013.98 1014.30 1014.64 1015.00 1015.39 1015.80 1016.22 1016.65
1019.72 1019.67 1019.62 1019.54 1019.42 1019.22 1018.96 1018.61 1018.20 1017.74 1017.25 1016.73 1016.22 1015.70 1015.19 1014.69 1014.19 1013.71 1013.26 1012.84 1012.49 1012.22 1012.04 1011.96 1011.97 1012.07 1012.25 1012.48 1012.76 1013.07 1013.40 1013.74 1014.10 1014.48 1014.87 1015.28 1015.69 1016.10
1020.02 1019.94 1019.87 1019.77 1019.63 1019.44 1019.19 1018.88 1018.51 1018.10 1017.64 1017.16 1016.65 1016.12 1015.56 1014.98 1014.39 1013.80 1013.22 1012.69 1012.22 1011.84 1011.56 1011.40 1011.35 1011.42 1011.57 1011.80 1012.08 1012.40 1012.75 1013.12 1013.51 1013.91 1014.33 1014.75 1015.16 1015.57
1020.27 1020.17 1020.06 1019.94 1019.79 1019.60 1019.37 1019.09 1018.77 1018.40 1017.99 1017.54 1017.04 1016.50 1015.91 1015.27 1014.60 1013.91 1013.22 1012.57 1011.98 1011.49 1011.11 1010.85 1010.73 1010.73 1010.83 1011.03 1011.31 1011.64 1012.01 1012.41 1012.84 1013.28 1013.73 1014.18 1014.61 1015.03
1020.45 1020.32 1020.19 1020.05 1019.88 1019.68 1019.46 1019.20 1018.91 1018.58 1018.21 1017.79 1017.31 1016.77 1016.17 1015.49 1014.76 1014.00 1013.23 1012.48 1011.79 1011.18 1010.69 1010.33 1010.11 1010.02 1010.06 1010.21 1010.45 1010.77 1011.15 1011.58 1012.04 1012.53 1013.03 1013.53 1014.00 1014.46
1020.54 1020.39 1020.23 1020.05 1019.86 1019.65 1019.41 1019.16 1018.88 1018.57 1018.23 1017.84 1017.38 1016.86 1016.26 1015.58 1014.83 1014.03 1013.21 1012.39 1011.61 1010.92 1010.33 1009.86 1009.53 1009.34 1009.28 1009.35 1009.54 1009.83 1010.20 1010.64 1011.13 1011.66 1012.21 1012.77 1013.30 1013.81
1020.52 1020.35 1020.15 1019.94 1019.71 1019.46 1019.20 1018.92 1018.63 1018.33 1017.99 1017.62 1017.20 1016.70 1016.13 1015.48 1014.75 1013.95 1013.12 1012.28 1011.46 1010.70 1010.02 1009.45 1009.01 1008.70 1008.53 1008.51 1008.61 1008.84 1009.18 1009.61 1010.12 1010.69 1011.29 1011.90 1012.50 1013.06
1020.40 1020.20 1019.96 1019.70 1019.42 1019.12 1018.81 1018.49 1018.16 1017.83 1017.50 1017.13 1016.74 1016.28 1015.76 1015.17 1014.50 1013.76 1012.96 1012.14 1011.31 1010.51 1009.77 1009.11 1008.56 1008.14 1007.86 1007.72 1007.73 1007.88 1008.17 1008.58 1009.08 1009.67 1010.30 1010.96 1011.62 1012.24
1020.18 1019.94 1019.66 1019.35 1019.01 1018.64 1018.26 1017.87 1017.49 1017.13 1016.76 1016.41 1016.03 1015.63 1015.18 1014.66 1014.08 1013.42 1012.70 1011.92 1011.12 1010.31 1009.54 1008.82 1008.18 1007.66 1007.26 1007.02 1006.94 1007.01 1007.23 1007.60 1008.09 1008.67 1009.33 1010.02 1010.72 1011.40
1019.85 1019.59 1019.27 1018.91 1018.50 1018.06 1017.60 1017.14 1016.69 1016.27 1015.88 1015.51 1015.16 1014.80 1014.42 1014.00 1013.51 1012.95 1012.31 1011.60 1010.85 1010.06 1009.27 1008.51 1007.81 1007.21 1006.73 1006.41 1006.24 1006.25 1006.42 1006.75 1007.22 1007.79 1008.45 1009.16 1009.88 1010.60
1019.44 1019.16 1018.82 1018.41 1017.95 1017.44 1016.90 1016.36 1015.84 1015.36 1014.93 1014.55 1014.20 1013.89 1013.56 1013.22 1012.81 1012.34 1011.78 1011.14 1010.43 1009.66 1008.88 1008.10 1007.37 1006.73 1006.21 1005.83 1005.63 1005.60 1005.75 1006.06 1006.51 1007.08 1007.74 1008.46 1009.19 1009.93
1018.96 1018.67 1018.32 1017.89 1017.38 1016.82 1016.22 1015.61 1015.03 1014.49 1014.02 1013.61 1013.26 1012.96 1012.68 1012.37 1012.02 1011.60 1011.10 1010.50 1009.81 1009.06 1008.28 1007.50 1006.77 1006.12 1005.60 1005.23 1005.03 1005.02 1005.18 1005.51 1005.98 1006.57 1007.23 1007.95 1008.70 1009.44
1018.42 1018.15 1017.80 1017.36 1016.83 1016.24 1015.59 1014.94 1014.30 1013.72 1013.20 1012.76 1012.40 1012.09 1011.80 1011.51 1011.16 1010.75 1010.25 1009.65 1008.95 1008.20 1007.42 1006.65 1005.93 1005.32 1004.84 1004.52 1004.40 1004.46 1004.69 1005.08 1005.60 1006.23 1006.92 1007.65 1008.39 1009.13
1017.85 1017.60 1017.26 1016.83 1016.30 1015.69 1015.03 1014.34 1013.68 1013.06 1012.50 1012.03 1011.63 1011.29 1010.97 1010.63 1010.24 1009.78 1009.23 1008.58 1007.84 1007.06 1006.26 1005.50 1004.82 1004.27 1003.88 1003.67 1003.67 1003.85 1004.20 1004.70 1005.32 1006.01 1006.75 1007.50 1008.26 1008.99
1017.24 1017.02 1016.70 1016.29 1015.78 1015.17 1014.50 1013.81 1013.12 1012.48 1011.90 1011.39 1010.95 1010.55 1010.16 1009.74 1009.27 1008.71 1008.06 1007.32 1006.51 1005.67 1004.85 1004.10 1003.46 1003.00 1002.72 1002.66 1002.82 1003.17 1003.69 1004.34 1005.07 1005.86 1006.66 1007.45 1008.22 1008.95
1016.61 1016.41 1016.12 1015.72 1015.22 1014.63 1013.97 1013.27 1012.58 1011.93 1011.33 1010.78 1010.29 1009.82 1009.34 1008.82 1008.23 1007.55 1006.78 1005.92 1005.01 1004.11 1003.25 1002.51 1001.94 1001.57 1001.44 1001.55 1001.89 1002.44 1003.14 1003.95 1004.82 1005.72 1006.59 1007.43 1008.21 1008.94
1015.95 1015.76 1015.48 1015.10 1014.61 1014.02 1013.37 1012.68 1011.99 1011.33 1010.71 1010.13 1009.59 1009.05 1008.48 1007.85 1007.14 1006.33 1005.42 1004.45 1003.44 1002.47 1001.60 1000.88 1000.38 1000.12 1000.14 1000.43 1000.96 1001.70 1002.58 1003.56 1004.57 1005.56 1006.51 1007.39 1008.19 1008.92
1015.28 1015.09 1014.80 1014.41 1013.91 1013.32 1012.67 1011.98 1011.29 1010.62 1009.98 1009.38 1008.79 1008.18 1007.53 1006.81 1005.98 1005.06 1004.05 1002.98 1001.90 1000.90 1000.02 999.34 998.92 998.79 998.95 999.41 1000.12 1001.03 1002.08 1003.20 1004.33 1005.41 1006.41 1007.32 1008.13 1008.86
1014.60 1014.39 1014.07 1013.65 1013.13 1012.52 1011.84 1011.14 1010.44 1009.76 1009.10 1008.47 1007.85 1007.19 1006.48 1005.68 1004.78 1003.78 1002.70 1001.57 1000.47 999.47 998.63 998.02 997.69 997.68 997.99 998.60 999.47 1000.53 1001.71 1002.93 1004.14 1005.28 1006.32 1007.25 1008.06 1008.78
1013.93 1013.67 1013.31 1012.84 1012.28 1011.62 1010.92 1010.19 1009.46 1008.76 1008.08 1007.43 1006.77 1006.08 1005.33 1004.48 1003.54 1002.51 1001.41 1000.29 999.21 998.25 997.48 996.96 996.75 996.87 997.32 998.06 999.06 1000.23 1001.50 1002.80 1004.06 1005.23 1006.28 1007.20 1008.00 1008.71
1013.26 1012.95 1012.53 1012.00 1011.38 1010.67 1009.92 1009.15 1008.40 1007.66 1006.96 1006.28 1005.59 1004.88 1004.10 1003.25 1002.31 1001.28 1000.21 999.13 998.13 997.26 996.60 996.20 996.12 996.37 996.94 997.80 998.90 1000.15 1001.48 1002.82 1004.09 1005.27 1006.31 1007.22 1008.00 1008.70
1012.57 1012.21 1011.73 1011.15 1010.46 1009.71 1008.91 1008.09 1007.30 1006.53 1005.79 1005.08 1004.37 1003.64 1002.86 1002.01 1001.09 1000.11 999.11 998.12 997.22 996.47 995.95 995.69 995.75 996.12 996.81 997.77 998.93 1000.24 1001.60 1002.95 1004.23 1005.39 1006.42 1007.30 1008.07 1008.75
1011.86 1011.45 1010.93 1010.29 1009.56 1008.76 1007.91 1007.06 1006.23 1005.42 1004.65 1003.91 1003.18 1002.43 1001.65 1000.83 999.95 999.03 998.11 997.23 996.46 995.85 995.47 995.36 995.55 996.04 996.83 997.86 999.08 1000.42 1001.80 1003.14 1004.41 1005.56 1006.57 1007.44 1008.20 1008.87
Thickness
5674 5674 5673 5672 5672 5672 5671 5671 5668 5667 5670 5675 5679 5685 5687 5689 5692 5694 5696 5699 5702 5703 5705 5707 5709 5711 5712 5714 5716 5717 5718 5720 5721 5722 5723 5724 5725 5726
5671 5670 5670 5669 5669 5669 5669 5668 5668 5667 5667 5671 5674 5678 5681 5684 5687 5689 5691 5694 5697 5699 5701 5702 5704 5706 5707 5709 5710 5712 5714 5715 5717 5718 5719 5720 5721 5721
5666 5665 5665 5665 5665 5665 5665 5665 5665 5664 5664 5668 5670 5673 5676 5678 5681 5684 5686 5688 5691 5694 5696 5697 5699 5701 5702 5703 5705 5706 5708 5710 5711 5712 5713 5714 5716 5717
5660 5660 5659 5660 5659 5660 5660 5660 5660 5661 5661 5662 5665 5667 5670 5673 5675 5677 5680 5682 5685 5688 5690 5691 5693 5695 5696 5698 5699 5700 5702 5704 5705 5706 5708 5709 5710 5711
5655 5653 5652 5652 5652 5653 5653 5654 5655 5656 5655 5656 5658 5661 5663 5665 5668 5670 5673 5675 5678 5681 5683 5685 5687 5688 5690 5691 5693 5694 5696 5698 5699 5700 5702 5703 5704 5705
5649 5647 5646 5646 5645 5646 5646 5646 5647 5648 5648 5649 5651 5653 5655 5657 5659 5661 5663 5666 5669 5673 5675 5678 5680 5682 5684 5685 5687 5688 5690 5691 5693 5694 5695 5696 5697 5699
5642 5641 5639 5639 5640 5639 5639 5638 5639 5639 5640 5641 5642 5644 5646 5648 5650 5652 5654 5657 5660 5663 5666 5669 5672 5674 5676 5678 5680 5682 5684 5685 5687 5688 5689 5690 5691 5693
5634 5633 5632 5631 5631 5631 5631 5631 5631 5630 5630 5631 5633 5634 5637 5639 5641 5643 5645 5646 5650 5655 5656 5659 5662 5665 5668 5671 5673 5675 5677 5679 5680 5681 5683 5684 5686 5686
5626 5624 5623 5622 5620 5619 5620 5621 5621 5622 5622 5622 5623 5625 5628 5630 5631 5633 5635 5638 5642 5646 5646 5650 5653 5656 5661 5663 5666 5668 5670 5672 5673 5675 5676 5677 5679 5680
5617 5614 5612 5611 5610 5609 5609 5610 5610 5611 5612 5613 5615 5618 5620 5621 5622 5624 5627 5629 5633 5636 5638 5641 5645 5648 5653 5655 5658 5660 5662 5664 5666 5667 5669 5670 5671 5672
5609 5606 5603 5601 5601 5600 5599 5598 5600 5601 5603 5604 5606 5608 5611 5612 5613 5613 5615 5617 5622 5627 5630 5632 5636 5639 5643 5647 5650 5652 5655 5657 5658 5659 5661 5662 5663 5664
5601 5598 5596 5593 5592 5591 5588 5587 5588 5590 5591 5593 5594 5597 5599 5600 5602 5603 5605 5607 5611 5616 5622 5623 5627 5628 5632 5638 5641 5644 5646 5648 5651 5652 5653 5654 5655 5656
5591 5589 5587 5585 5583 5581 5580 5578 5578 5579 5580 5580 5581 5584 5586 5589 5592 5594 5596 5598 5601 5607 5614 5614 5617 5619 5622 5627 5630 5634 5637 5640 5642 5643 5645 5646 5647 5649
5582 5580 5578 5576 5574 5573 5571 5570 5570 5569 5568 5568 5569 5572 5575 5579 5582 5585 5587 5590 5594 5599 5604 5606 5608 5611 5612 5615 5620 5624 5627 5630 5633 5635 5636 5637 5638 5641
5573 5571 5569 5567 5564 5562 5560 5560 5559 5557 5556 5557 5559 5562 5565 5569 5572 5575 5578 5580 5584 5589 5594 5597 5601 5603 5605 5609 5612 5614 5617 5620 5623 5626 5627 5628 5630 5632
5564 5561 5559 5556 5553 5551 5550 5548 5547 5546 5545 5547 5549 5552 5554 5557 5560 5563 5566 5569 5573 5580 5584 5588 5592 5594 5596 5601 5604 5607 5609 5612 5615 5617 5618 5619 5621 5624
5553 5550 5546 5543 5541 5539 5537 5537 5537 5536 5535 5536 5537 5540 5543 5546 5549 5551 5553 5557 5561 5568 5574 5577 5580 5583 5587 5591 5594 5599 5601 5603 5606 5608 5608 5610 5612 5615
5541 5536 5533 5530 5528 5527 5526 5526 5525 5525 5525 5526 5527 5528 5531 5534 5537 5540 5541 5545 5550 5556 5562 5566 5568 5569 5573 5578 5585 5591 5593 5595 5597 5599 5601 5602 5603 5605
5528 5524 5521 5519 5517 5515 5514 5513 5514 5514 5514 5515 5516 5518 5520 5522 5525 5528 5531 5535 5540 5545 5551 5555 5557 5560 5564 5572 5577 5581 5586 5588 5588 5589 5592 5595 5597 5598
5516 5512 5510 5507 5505 5503 5503 5502 5502 5503 5504 5505 5506 5508 5509 5511 5514 5517 5520 5524 5530 5534 5540 5545 5548 5553 5558 5564 5567 5570 5575 5579 5581 5582 5582 5583 5585 5587
5506 5502 5499 5496 5494 5492 5492 5492 5491 5492 5493 5494 5496 5498 5499 5500 5503 5507 5510 5514 5518 5523 5529 5536 5540 5542 5544 5547 5551 5557 5562 5568 5574 5577 5575 5574 5574 5576
5496 5493 5490 5487 5484 5483 5482 5481 5481 5482 5483 5485 5487 5489 5490 5491 5494 5497 5501 5505 5509 5514 5519 5524 5526 5529 5532 5539 5545 5549 5551 5554 5559 5564 5568 5572 5572 5573
5486 5483 5480 5477 5475 5473 5472 5472 5472 5473 5474 5475 5478 5480 5482 5483 5485 5488 5491 5495 5499 5503 5507 5511 5514 5518 5523 5529 5535 5539 5541 5544 5547 5550 5553 5559 5564 5567